User: anonymous
Location: Holmes Observatory
(37.1039°N, 122.0513°W)
Time: 08:57:42
(UTC-07:00)
Language:

Cosmos 921 Rocket - Orbit

View from above orbital plane
View from above orbital plane
View from above satellite
View from above satellite

Ground track
Ground track

The orbit data is extracted from the following two-line orbital elements,

1 10096U 77055B   14262.74704361  .00000473  00000-0  53047-4 0  5282
2 10096 075.8363 337.7587 0043562 237.9085 258.9025 14.87873918 13274
Epoch (UTC): 19 September 2014 17:55:44
Eccentricity: 0.0043562
inclination: 75.8363°
perigee height: 574 km
apogee height: 635 km
right ascension of ascending node: 337.7587°
argument of perigee: 237.9085°
revolutions per day: 14.87873918
mean anomaly at epoch: 258.9025°
orbit number at epoch: 1327

The dashed part of the orbit path shows where the satellite is in the earth's shadow,  

DLR